VENTA 1 (42791 NORAD) Tracking and Keplerian Element Data

This shows tracking and keplerian element data for the satellite.

Feedback or suggestion? Click here.




ElementValue
Catalog42791
NameVENTA 1
Epoch Orbit10086
Epoch Day107.91951979
Epoch Year2019
RAAN167.3372
Inclination97.3579
Eccentricity0.0012954
Argument of Perigee88.5626
Mean Anonmoly271.7094
Mean Motion15.22667373
Decay Rate1.256E-05
L11 42791U 17036AC 19107.91951979 .00001256 00000-0 56843-4 0 9992
L22 42791 097.3579 167.3372 0012954 088.5626 271.7094 15.22667373100867

Live tracking and technical data element details for VENTA 1 (NORAD 42791). VENTA 1 can be tracked NOW for your location showing map with azimuth and elevation plus other details from your city location.

Track the satellite on the map from your city or location and see movement details for azimuth, elevation, latitude, longitude, range, height, and movement on the map or in text.







IsCatalogInMostPopularTable: catalog: 42791, numindb: 185
Update: records affected: 1



GetName: 42791 VENTA 1

Hit Count: updated at: Thu, 25 Apr 2019 19:48:02 GMT